Hebbronville, TX

7:07 PM CST on February 07, 2016 (GMT -0600)
Hogg County

Weather History for KHBV - November, 2012

Change the Weather History Date:

Wednesday, November 21, 2012

  Actual Average (KLRD) Record (KLRD)
Temperature  
Mean Temperature 67 °F 64 °F  
Max Temperature 80 °F 74 °F 93 °F (1909)
Min Temperature 54 °F 53 °F 21 °F (1906)
Degree Days  
Heating Degree Days 0 4  
Month to date heating degree days 53  
Since 1 July heating degree days 65  
Cooling Degree Days 2 3  
Month to date cooling degree days 104  
Year to date cooling degree days 4233  
Growing Degree Days 17 (Base 50)    
Moisture  
Dew Point 55 °F    
Average Humidity 71    
Maximum Humidity 97    
Minimum Humidity 32    
Precipitation  
Precipitation 0.00 in 0.04 in 2.06 in (1980)
Month to date precipitation 0.89  
Year to date precipitation 19.02  
Sea Level Pressure  
Sea Level Pressure 30.20 in    
Wind  
Wind Speed 5 mph (ESE)    
Max Wind Speed 15 mph    
Max Gust Speed 20 mph    
Visibility 8 miles    
Events Fog , Rain    
T = Trace of Precipitation, MM = Missing Value Source: NWS Daily Summary

Daily Weather History Graph

Daily Weather History Graph

Search for Another Location

Airport or City:

Trip Planner

Search our weather history database for the weather conditions in past years. The results will help you decide how hot, cold, wet, or windy it might be!

Date:

Astronomy

Nov. 21, 2012 Rise Set
Actual Time 7:00 AM CST 5:41 PM CST
Civil Twilight 6:35 AM CST 6:06 PM CST
Nautical Twilight 6:07 AM CST 6:34 PM CST
Astronomical Twilight 5:39 AM CST 7:02 PM CST
Moon 1:29 PM CST (11/21) 12:53 AM CST (11/21)
Length of Visible Light 11h 30m
Length of Day
10h 40m
First Quarter, 62% of the Moon is Illuminated
Nov 21
First Quarter
Nov 28
Full
Dec 6
Last Quarter
Dec 13
New
Dec 19
First Quarter

Hourly Weather History & Observations

Time (CST) Temp. Dew Point Humidity Pressure Visibility Wind Dir Wind Speed Gust Speed Precip Events Conditions
12:15 AM 61.5 °F 56.7 °F 84% 30.20 in 10.0 mi South 4.6 mph - N/A   Clear
12:35 AM 61.2 °F 56.7 °F 85% 30.20 in 10.0 mi South 4.6 mph - N/A   Clear
12:55 AM 60.8 °F 57.0 °F 87% 30.19 in 10.0 mi South 4.6 mph - N/A   Clear
1:15 AM 60.8 °F 57.2 °F 88% 30.19 in 10.0 mi Calm Calm - N/A   Clear
1:35 AM 60.6 °F 57.4 °F 89% 30.20 in 10.0 mi Calm Calm - N/A   Clear
1:55 AM 60.1 °F 57.4 °F 91% 30.19 in 10.0 mi Calm Calm - N/A   Clear
2:15 AM 59.9 °F 57.2 °F 91% 30.19 in 10.0 mi Calm Calm - N/A   Clear
2:35 AM 59.2 °F 56.7 °F 91% 30.19 in 10.0 mi Calm Calm - N/A   Clear
2:55 AM 58.8 °F 56.5 °F 92% 30.19 in 7.0 mi SW 4.6 mph - N/A   Clear
3:15 AM 58.1 °F 56.3 °F 94% 30.19 in 7.0 mi SSW 3.5 mph - N/A   Clear
3:35 AM 58.8 °F 57.2 °F 94% 30.19 in 5.0 mi SSW 4.6 mph - N/A   Clear
3:55 AM 59.0 °F 57.4 °F 94% 30.19 in 3.0 mi SW 4.6 mph - N/A   Clear
4:15 AM 59.0 °F 57.6 °F 95% 30.19 in 3.0 mi SW 3.5 mph - N/A   Clear
4:35 AM 59.4 °F 58.3 °F 96% 30.19 in 2.5 mi Calm Calm - N/A   Clear
5:15 AM 58.8 °F 57.7 °F 96% 30.20 in 1.0 mi Calm Calm - N/A   Mist
5:35 AM 57.6 °F 56.5 °F 96% 30.21 in 1.5 mi Calm Calm - N/A   Mist
5:55 AM 55.6 °F 54.5 °F 96% 30.21 in 1.2 mi Calm Calm - N/A   Mist
6:15 AM 54.7 °F 53.8 °F 97% 30.21 in 0.5 mi Calm Calm - N/A Fog Fog
6:35 AM 54.3 °F 53.4 °F 97% 30.22 in 0.5 mi Calm Calm - N/A Fog Fog
6:55 AM 54.7 °F 53.8 °F 97% 30.23 in 0.2 mi Calm Calm - N/A Rain Rain
7:15 AM 54.7 °F 53.8 °F 97% 30.23 in 0.2 mi Calm Calm - N/A Fog Fog
7:35 AM 55.6 °F 54.9 °F 97% 30.24 in 0.2 mi Calm Calm - N/A Fog Fog
7:55 AM 56.5 °F 55.8 °F 97% 30.24 in 0.2 mi Calm Calm - N/A Fog Fog
8:15 AM 58.6 °F 57.9 °F 97% 30.25 in 0.5 mi Calm Calm - N/A Fog Fog
8:35 AM 60.1 °F 59.2 °F 97% 30.25 in 7.0 mi Calm Calm - N/A   Clear
8:55 AM 61.7 °F 61.0 °F 97% 30.26 in 10.0 mi South 3.5 mph - N/A   Clear
9:15 AM 63.0 °F 62.2 °F 97% 30.26 in 10.0 mi SSE 3.5 mph - N/A   Clear
9:35 AM 63.9 °F 63.0 °F 97% 30.26 in 10.0 mi SSE 3.5 mph - N/A   Clear
9:55 AM 65.5 °F 63.7 °F 94% 30.26 in 10.0 mi SE 5.8 mph - N/A   Clear
10:15 AM 69.8 °F 61.3 °F 74% 30.26 in 10.0 mi SSE 5.8 mph - N/A   Clear
10:35 AM 71.2 °F 59.7 °F 67% 30.26 in 10.0 mi ESE 4.6 mph - N/A   Clear
10:55 AM 73.4 °F 58.6 °F 60% 30.26 in 10.0 mi ESE 9.2 mph - N/A   Clear
11:15 AM 74.8 °F 58.3 °F 56% 30.26 in 10.0 mi ESE 5.8 mph - N/A   Clear
11:35 AM 75.2 °F 56.8 °F 53% 30.25 in 10.0 mi ESE 10.4 mph 16.1 mph N/A   Clear
11:55 AM 76.5 °F 56.1 °F 49% 30.24 in 7.0 mi SE 9.2 mph - N/A   Clear
12:15 PM 77.5 °F 54.9 °F 45% 30.22 in 7.0 mi SE 9.2 mph - N/A   Clear
12:35 PM 78.4 °F 54.0 °F 43% 30.21 in 7.0 mi ESE 8.1 mph - N/A   Scattered Clouds
12:55 PM 78.8 °F 51.3 °F 38% 30.20 in 5.0 mi East 15.0 mph - N/A   Haze
1:15 PM 78.6 °F 49.5 °F 36% 30.18 in 4.0 mi SE 8.1 mph 16.1 mph N/A   Haze
1:35 PM 79.2 °F 48.6 °F 34% 30.17 in 4.0 mi ESE 10.4 mph 17.3 mph N/A   Haze
2:15 PM 80.4 °F 47.7 °F 32% 30.16 in 7.0 mi ESE 11.5 mph 19.6 mph N/A   Clear
2:35 PM 80.2 °F 47.5 °F 32% 30.16 in 10.0 mi ESE 8.1 mph - N/A   Scattered Clouds
2:55 PM 79.3 °F 48.0 °F 33% 30.15 in 10.0 mi SE 8.1 mph - N/A   Scattered Clouds
3:15 PM 79.7 °F 48.2 °F 33% 30.15 in 10.0 mi ESE 9.2 mph - N/A   Clear
3:35 PM 80.1 °F 48.2 °F 33% 30.14 in 10.0 mi SE 10.4 mph - N/A   Scattered Clouds
3:55 PM 80.2 °F 48.2 °F 32% 30.14 in 10.0 mi SE 9.2 mph - N/A   Scattered Clouds
4:15 PM 80.2 °F 48.4 °F 33% 30.14 in 10.0 mi East 4.6 mph - N/A   Clear
4:35 PM 80.2 °F 50.0 °F 35% 30.15 in 10.0 mi East 11.5 mph - N/A   Scattered Clouds
4:55 PM 78.8 °F 51.6 °F 39% 30.15 in 10.0 mi ENE 15.0 mph - N/A   Mostly Cloudy
5:15 PM 77.5 °F 52.0 °F 41% 30.15 in 10.0 mi East 15.0 mph - N/A   Scattered Clouds
5:35 PM 75.9 °F 52.9 °F 45% 30.15 in 10.0 mi East 11.5 mph 19.6 mph N/A   Clear
5:55 PM 74.3 °F 54.0 °F 49% 30.16 in 10.0 mi East 11.5 mph - N/A   Clear
6:15 PM 73.2 °F 54.1 °F 51% 30.16 in 10.0 mi East 10.4 mph - N/A   Scattered Clouds
6:35 PM 72.3 °F 54.7 °F 54% 30.17 in 10.0 mi East 9.2 mph - N/A   Scattered Clouds
6:55 PM 71.2 °F 55.0 °F 56% 30.18 in 10.0 mi East 8.1 mph - N/A   Clear
7:15 PM 70.5 °F 54.9 °F 58% 30.18 in 10.0 mi East 9.2 mph - N/A   Clear
7:35 PM 70.3 °F 55.2 °F 59% 30.18 in 10.0 mi East 9.2 mph - N/A   Clear
7:55 PM 69.4 °F 55.6 °F 61% 30.19 in 10.0 mi ESE 9.2 mph - N/A   Clear
8:15 PM 68.9 °F 56.1 °F 64% 30.20 in 10.0 mi East 8.1 mph - N/A   Clear
8:35 PM 68.2 °F 56.3 °F 66% 30.21 in 10.0 mi East 5.8 mph - N/A   Clear
8:55 PM 67.3 °F 56.3 °F 68% 30.21 in 10.0 mi East 4.6 mph - N/A   Clear
9:15 PM 66.2 °F 56.3 °F 70% 30.21 in 10.0 mi East 4.6 mph - N/A   Clear
9:35 PM 65.1 °F 56.3 °F 73% 30.21 in 10.0 mi East 5.8 mph - N/A   Clear
9:55 PM 64.0 °F 55.9 °F 75% 30.21 in 10.0 mi East 4.6 mph - N/A   Clear
10:15 PM 64.0 °F 56.3 °F 76% 30.20 in 10.0 mi East 4.6 mph - N/A   Clear
10:35 PM 63.5 °F 56.3 °F 77% 30.20 in 10.0 mi ESE 5.8 mph - N/A   Clear
10:55 PM 62.6 °F 56.1 °F 79% 30.19 in 10.0 mi East 4.6 mph - N/A   Clear
11:15 PM 61.7 °F 55.8 °F 81% 30.19 in 10.0 mi East 6.9 mph - N/A   Clear
11:35 PM 61.2 °F 55.8 °F 82% 30.18 in 10.0 mi East 4.6 mph - N/A   Clear
11:55 PM 60.8 °F 55.8 °F 83% 30.17 in 10.0 mi East 4.6 mph - N/A   Clear